This demonstration page uses our WeatherBlox Daily Observations layout. Learn more.

Left ArrowRight Arrow

41.12389, -100.76542

Hourly Observations for July 13, 2015

Temp ( °F °C ) Dew Point ( °F °C ) Humidity (%) Winds ( mph kmh ) Pressure ( in mb ) Visibility ( mi km ) Precip ( " mm )
12:53 am 00:53 Clear 69 20.6 60 15.6 73 73 E 3 6 29.80 1009 10 16 0.00 0.00
1:53 am 01:53 Clear 67 19.4 62 16.7 84 84 NW 6 9 29.80 1009 10 16 0.00 0.00
2:53 am 02:53 Clear 65 18.3 59 15 81 81 NW 5 7 29.80 1009 10 16 0.00 0.00
3:53 am 03:53 Clear 64 17.8 59 15 84 84 Calm 29.80 1009 10 16 0.00 0.00
4:53 am 04:53 Clear 63 17.2 60 15.6 90 90 Calm 29.80 1009 10 16 0.00 0.00
5:53 am 05:53 Clear 65 18.3 61 16.1 87 87 NNW 8 13 29.80 1009 10 16 0.00 0.00
6:53 am 06:53 Sunny 63 17.2 59 15 87 87 NW 6 9 29.82 1010 10 16 0.00 0.00
7:53 am 07:53 Sunny 67 19.4 60 15.6 79 79 WNW 6 9 29.83 1010 10 16 0.00 0.00
8:53 am 08:53 Sunny 74 23.3 60 15.6 62 62 NW 5 7 29.84 1011 10 16 0.00 0.00
9:53 am 09:53 Sunny 84 28.9 56 13.3 38 38 N 13 20 29.84 1011 10 16 0.00 0.00
10:53 am 10:53 Sunny 87 30.6 55 12.8 34 34 NNE 10 17 29.84 1010 10 16 0.00 0.00
11:53 am 11:53 Sunny 91 32.8 54 12.2 28 28 NNE 9 15 29.83 1010 10 16 0.00 0.00
12:53 pm 12:53 Sunny 94 34.4 52 11.1 24 24 NNE 10 17 29.83 1010 10 16 0.00 0.00
1:53 pm 13:53 Sunny 95 35 53 11.7 24 24 NE 8 13 29.81 1010 10 16 0.00 0.00
2:53 pm 14:53 Sunny 96 35.6 55 12.8 25 25 undefined N/A 29.81 1010 10 16 0.00 0.00
3:53 pm 15:53 Sunny 95 35 54 12.2 25 25 ESE 7 11 29.81 1009 10 16 0.00 0.00
4:53 pm 16:53 Sunny 95 35 53 11.7 24 24 VRB 3 6 29.80 1009 10 16 0.00 0.00
5:53 pm 17:53 Sunny 94 34.4 58 14.4 30 30 SE 7 11 29.78 1009 10 16 0.00 0.00
6:53 pm 18:53 Sunny 91 32.8 61 16.1 37 37 SE 9 15 29.78 1008 10 16 0.00 0.00
7:53 pm 19:53 Sunny 85 29.4 65 18.3 51 51 SSE 3 6 29.78 1008 10 16 0.00 0.00
8:53 pm 20:53 Sunny 77 25 66 18.9 69 69 E 5 7 29.79 1009 10 16 0.00 0.00
9:53 pm 21:53 Clear 73 22.8 64 17.8 74 74 E 5 7 29.79 1009 10 16 0.00 0.00
10:53 pm 22:53 Clear 76 24.4 65 18.3 69 69 S 5 7 29.80 1009 10 16 0.00 0.00
11:53 pm 23:53 Clear 73 22.8 64 17.8 74 74 Calm 29.80 1009 10 16 0.00 0.00

Powered by AerisWeather